View from above orbital plane
|
View from above satellite
|
Ground track
|
The orbit data is extracted from the following two-line orbital elements,
1 43937U 19003F 21016.85585245 .00001389 00000-0 57901-4 0 9998
2 43937 97.1988 65.9869 0023424 185.7777 174.3195 15.25091947111152
Epoch (UTC): | 16 January 2021 20:32:25 |
Eccentricity: | 0.0023424 |
inclination: | 97.1988° |
perigee height: | 474 km |
apogee height: | 506 km |
right ascension of ascending node: | 65.9869° |
argument of perigee: | 185.7777° |
revolutions per day: | 15.25091947 |
mean anomaly at epoch: | 174.3195° |
orbit number at epoch: | 11115 |
The dashed part of the orbit path shows where the satellite is in the earth's shadow,
|
|